[[{"header":{"parameterUnit":"m.s-1","parameterCategory":2,"la1":30.2991,"la2":30.254,"lo1":-89.0895,"lo2":-89.0444,"dy":0.0017,"dx":0.0017,"nx":28,"ny":28,"refTime":"2024-10-04T09:00:00:Z","depth":"0","parameterNumber":2,"parameterNumberName":"U-component_of_CURRENTS"},"data":[0,0,0,0,0,0,0,0,0,0,0,0,0,0,0,0,0,0,0,0,0,0,0,0,0,0,0,0,0,0,0,0,0,0,0,0,0,0,0,0,0,0,0,0,0,0,0,0,0,0,0,0,0,0,0,0,0,0,0.2033,0.2033,0,0.2095,0.2095,0.2096,0.2116,0.2116,0.2116,0.2115,0.2127,0.2127,0.2127,0,0,0,0,0,0,0,0,0,0,0,0,0,0.1965,0.1966,0.2033,0.2034,0.2034,0.2095,0.2095,0.2096,0.2116,0.2116,0.2115,0.2115,0.2126,0.2127,0.2127,0,0,0,0,0,0,0,0,0,0,0,0,0,0.2006,0.1966,0.2032,0.2053,0.2055,0.2095,0.2095,0.2096,0.2116,0.2116,0.2115,0.2115,0.2126,0.2127,0.2127,0.2135,0,0,0.2129,0.213,0,0,0,0,0,0,0,0,0.2003,0.2008,0.2049,0.2052,0.2055,0.2099,0.2076,0.2107,0.2116,0.2091,0.2115,0.2115,0.2114,0.2116,0.2126,0.2135,0.2136,0.2129,0.213,0.213,0.213,0,0,0,0,0,0,0,0.2,0.2006,0.2055,0.205,0.2053,0.2071,0.2076,0.2082,0.21,0.2093,0.2095,0.2105,0.2115,0.2125,0.2126,0.2136,0.2129,0.213,0.213,0.2131,0.2176,0.2177,0,0,0,0,0,0,0.1995,0.2003,0.2053,0.2057,0.203,0.2072,0.2078,0.2083,0.2101,0.2105,0.2105,0.2106,0.2124,0.2125,0.2126,0.2182,0.213,0.2131,0.2131,0.2176,0.2177,0.2178,0,0,0,0,0,0,0.1993,0.1999,0.2051,0.2033,0.2041,0.2073,0.208,0.2085,0.2098,0.2111,0.2114,0.2113,0.2124,0.2126,0.2137,0.2181,0.2131,0.2131,0.2175,0.2176,0.2177,0.2263,0,0,0,0,0,0,0.1991,0.1997,0.1999,0.2033,0.2042,0.2078,0.208,0.2086,0.2105,0.2106,0.2119,0.212,0.2124,0.2136,0.2138,0.2181,0.2132,0.2173,0.2175,0.2177,0.226,0.2268,0.2274,0,0,0,0,0,0.1988,0.1995,0.1998,0.2005,0.2043,0.2079,0.2086,0.2107,0.2105,0.2116,0.2123,0.212,0.2148,0.2137,0.2139,0.2183,0.2173,0.2175,0.2177,0.2256,0.2266,0.2274,0,0,0,0,0,0,0.1967,0.1998,0.2003,0.2018,0.2047,0.2083,0.2097,0.2108,0.2123,0.2122,0.2126,0.2128,0.2158,0.2148,0.2136,0.2198,0.2161,0.2164,0.2222,0.2231,0.2238,0.2284,0.2132,0,0,0,0,0,0.1963,0.1975,0.2008,0.2021,0.2035,0.2064,0.208,0.2096,0.2116,0.2123,0.2132,0.2143,0.2168,0.2179,0.2189,0.2217,0.2239,0.2246,0.2253,0.226,0.2297,0.2358,0.2376,0.2184,0.2184,0.2184,0,0,0.196,0.1978,0.1985,0.2018,0.2041,0.2093,0.2073,0.2103,0.2153,0.2121,0.2174,0.2165,0.2178,0.2219,0.2232,0.2217,0.2321,0.2262,0.2268,0.2303,0.2362,0.2381,0.2398,0.2185,0.2185,0.2185,0,0,0.1987,0.1976,0.2012,0.2042,0.2082,0.2101,0.211,0.2146,0.2165,0.2202,0.2204,0.2224,0.2241,0.228,0.2298,0.2349,0.2355,0.2338,0.2424,0.2482,0.25,0.2515,0.2556,0.2574,0.2347,0.2347,0.2347,0,0.199,0.2035,0.2028,0.2086,0.2117,0.2111,0.2171,0.22,0.2235,0.2256,0.2226,0.2287,0.2287,0.2375,0.2398,0.2374,0.2396,0.2392,0.2496,0.2512,0.2527,0.2564,0.2584,0.2351,0.2351,0.2351,0.235,0,0.2076,0.2102,0.2125,0.2195,0.2223,0.2263,0.2303,0.2325,0.2326,0.2354,0.2408,0.2411,0.2449,0.2452,0.2448,0.2555,0.2532,0.2496,0.2482,0.2552,0.2586,0.2605,0.2358,0.2356,0.2355,0.2354,0,0,0.212,0.2174,0.2184,0.221,0.228,0.2301,0.2382,0.2441,0.2482,0.2508,0.2572,0.2623,0.2605,0.2626,0.2619,0.2678,0.2789,0.2641,0.2642,0.2697,0.2915,0.2898,0.2917,0.2771,0.2775,0.2778,0.2894,0,0.2198,0.2279,0.2305,0.2381,0.2421,0.2439,0.2502,0.255,0.2576,0.2626,0.2656,0.2698,0.268,0.2685,0.2754,0.2769,0.2845,0.2761,0.2826,0.2829,0.2819,0.2941,0.2813,0.2906,0.2912,0.2915,0.2917,0,0.2302,0.2329,0.24,0.2437,0.2457,0.2503,0.2564,0.2622,0.27,0.2722,0.2788,0.2794,0.2896,0.2845,0.2976,0.292,0.2948,0.2961,0.2965,0.2943,0.2849,0.2838,0.294,0.2793,0.2946,0.2944,0.2942,0,0.2318,0.2399,0.2431,0.2457,0.2509,0.2536,0.2567,0.2642,0.2677,0.2781,0.2804,0.292,0.2947,0.3032,0.3068,0.3028,0.3194,0.3127,0.3152,0.3149,0.3055,0.3037,0.3042,0.3253,0.3253,0.3253,0.3252,0,0.2382,0.2405,0.2428,0.2443,0.2471,0.2525,0.2568,0.2621,0.2703,0.2751,0.2838,0.2899,0.2995,0.3081,0.3125,0.3213,0.3245,0.322,0.3204,0.3076,0.3061,0.2937,0.2891,0.3257,0.3256,0.3255,0.3255,0,0.2365,0.2396,0.2418,0.2457,0.2468,0.2476,0.2531,0.2567,0.2656,0.2726,0.2759,0.2896,0.3023,0.3118,0.3247,0.3264,0.3256,0.3371,0.3213,0.3178,0.305,0.3015,0.2999,0.2905,0.3428,0.3428,0.3429,0,0.2344,0.236,0.2384,0.2385,0.239,0.2416,0.2436,0.2525,0.257,0.2719,0.2749,0.2902,0.3008,0.3205,0.3292,0.341,0.3277,0.3332,0.3251,0.3081,0.3029,0.2913,0.2824,0.3146,0.3145,0.3143,0.3142,0,0.2295,0.2305,0.2314,0.2314,0.2323,0.2334,0.2376,0.2399,0.2515,0.2591,0.2712,0.2815,0.3031,0.3114,0.3276,0.3324,0.315,0.3307,0.3172,0.2881,0.2715,0.2599,0.3015,0.3129,0.313,0.3131,0.3132,0.3132,0.2237,0.2225,0.2242,0.2234,0.2244,0.224,0.2225,0.2298,0.2353,0.2446,0.2608,0.2716,0.2881,0.3107,0.3139,0.3073,0.3097,0.2964,0.2958,0.2871,0.272,0.3121,0.3186,0.3188,0.3189,0.319,0.3191,0,0.2161,0.2167,0.2163,0.2147,0.212,0.2154,0.2172,0.2155,0.2185,0.2326,0.2431,0.2556,0.2651,0.2757,0.2808,0.2714,0.259,0.262,0.2395,0.2342,0.273,0.2653,0.2553,0.2553,0.2553,0.2553,0.2554,0.2554,0.2125,0.2097,0.2096,0.2025,0.2012,0.1943,0.1929,0.1935,0.1999,0.2065,0.213,0.2252,0.2422,0.2514,0.2426,0.2368,0.214,0.209,0.2071,0.2293,0.2321,0.2348,0.2261,0.208,0.208,0.1546,0.1542,0.1539]},{"header":{"parameterUnit":"m.s-1","parameterCategory":2,"la1":30.2991,"la2":30.254,"lo1":-89.0895,"lo2":-89.0444,"dy":0.0017,"dx":0.0017,"nx":28,"ny":28,"refTime":"2024-10-04T09:00:00:Z","depth":"0","parameterNumber":3,"parameterNumberName":"V-component_of_CURRENTS"},"data":[0,0,0,0,0,0,0,0,0,0,0,0,0,0,0,0,0,0,0,0,0,0,0,0,0,0,0,0,0,0,0,0,0,0,0,0,0,0,0,0,0,0,0,0,0,0,0,0,0,0,0,0,0,0,0,0,0,0,-0.0125,-0.0126,0,-0.0239,-0.0241,-0.0242,-0.0329,-0.033,-0.033,-0.0331,-0.0438,-0.0441,-0.0443,0,0,0,0,0,0,0,0,0,0,0,0,0,-0.0062,-0.0062,-0.0125,-0.0126,-0.0127,-0.0239,-0.0241,-0.0243,-0.0329,-0.033,-0.033,-0.0331,-0.0438,-0.044,-0.0443,0,0,0,0,0,0,0,0,0,0,0,0,0,-0.0126,-0.0062,-0.0124,-0.0182,-0.0188,-0.0239,-0.0241,-0.0243,-0.0329,-0.033,-0.0331,-0.0331,-0.0437,-0.044,-0.0443,-0.0448,0,0,-0.0454,-0.0456,0,0,0,0,0,0,0,0,-0.0122,-0.0129,-0.0172,-0.0178,-0.0185,-0.0268,-0.0258,-0.031,-0.0329,-0.0278,-0.0331,-0.0332,-0.0378,-0.0387,-0.041,-0.0453,-0.0458,-0.0454,-0.0457,-0.0458,-0.0459,0,0,0,0,0,0,0,-0.0118,-0.0125,-0.0173,-0.0173,-0.0181,-0.0229,-0.0239,-0.0269,-0.0324,-0.0283,-0.0289,-0.0297,-0.0382,-0.0407,-0.0413,-0.046,-0.0454,-0.0458,-0.046,-0.0461,-0.0493,-0.0491,0,0,0,0,0,0,-0.0093,-0.012,-0.0169,-0.0176,-0.0152,-0.0229,-0.024,-0.0243,-0.0324,-0.0337,-0.0296,-0.03,-0.04,-0.0409,-0.0417,-0.0411,-0.0458,-0.0461,-0.0463,-0.0494,-0.0492,-0.0491,0,0,0,0,0,0,-0.0091,-0.0096,-0.0164,-0.0149,-0.0161,-0.0228,-0.0232,-0.0245,-0.0265,-0.0334,-0.0347,-0.0301,-0.0401,-0.0413,-0.0435,-0.0417,-0.0463,-0.0466,-0.0495,-0.0493,-0.0492,-0.0409,0,0,0,0,0,0,-0.0089,-0.0095,-0.0089,-0.0147,-0.016,-0.018,-0.0231,-0.0246,-0.0267,-0.0274,-0.0343,-0.0354,-0.0403,-0.0429,-0.0438,-0.0422,-0.0469,-0.0497,-0.0495,-0.0492,-0.0413,-0.0405,-0.0397,0,0,0,0,0,-0.0086,-0.0072,-0.0088,-0.0094,-0.015,-0.0179,-0.019,-0.0244,-0.0266,-0.0267,-0.0313,-0.0352,-0.042,-0.0431,-0.0442,-0.0427,-0.0498,-0.0495,-0.0493,-0.0417,-0.0406,-0.0397,0,0,0,0,0,0,-0.0048,-0.0081,-0.0099,-0.0098,-0.0128,-0.0192,-0.0199,-0.0231,-0.0269,-0.0274,-0.0341,-0.0355,-0.0369,-0.0402,-0.0412,-0.0426,-0.0463,-0.0462,-0.0402,-0.0393,-0.0385,-0.0366,-0.0472,0,0,0,0,0,-0.0032,-0.0029,-0.007,-0.007,-0.0078,-0.0134,-0.0152,-0.0183,-0.0225,-0.0244,-0.0291,-0.0333,-0.0366,-0.0382,-0.0418,-0.0423,-0.0451,-0.0418,-0.0409,-0.0402,-0.0393,-0.0417,-0.0411,-0.0482,-0.0482,-0.0482,0,0,-0.0018,-0.0036,-0.0036,-0.0061,-0.009,-0.0091,-0.0147,-0.0163,-0.0166,-0.0247,-0.0262,-0.0308,-0.0361,-0.0375,-0.0382,-0.04,-0.0394,-0.0399,-0.0392,-0.0387,-0.0414,-0.0407,-0.0401,-0.048,-0.048,-0.048,0,0,0.0016,-0.0,0.0016,0.0002,-0.0025,-0.0056,-0.0051,-0.01,-0.0123,-0.0142,-0.0199,-0.0228,-0.028,-0.0315,-0.0339,-0.0301,-0.0352,-0.031,-0.0254,-0.0277,-0.0272,-0.0267,-0.0283,-0.0281,-0.0303,-0.0303,-0.0303,0,0.0035,0.0049,0.0016,0.003,0.0026,-0.0029,-0.001,-0.0039,-0.009,-0.0098,-0.0132,-0.0203,-0.0251,-0.0265,-0.0259,-0.0283,-0.0303,-0.0289,-0.0267,-0.0263,-0.026,-0.0278,-0.0276,-0.0299,-0.0299,-0.03,-0.03,0,0.008,0.0093,0.0104,0.0106,0.0099,0.0105,0.0072,0.0062,0.0028,-0.0007,-0.003,-0.0101,-0.0141,-0.016,-0.0205,-0.02,-0.0223,-0.0257,-0.0292,-0.0248,-0.0269,-0.0269,-0.0293,-0.0294,-0.0295,-0.0297,0,0,0.0114,0.0134,0.0138,0.0154,0.0142,0.0139,0.015,0.0139,0.0145,0.0091,0.0093,0.0027,-0.0015,-0.0044,-0.01,-0.0126,-0.0128,-0.0176,-0.0179,-0.0191,-0.0172,-0.0177,-0.0178,-0.016,-0.0159,-0.0159,-0.0193,0,0.0159,0.0208,0.0205,0.0246,0.0266,0.0237,0.0247,0.0231,0.0204,0.0191,0.0126,0.0099,0.0031,0.0009,-0.0023,-0.0103,-0.0125,-0.0115,-0.0214,-0.0216,-0.0226,-0.0177,-0.015,-0.0176,-0.0193,-0.0193,-0.0193,0,0.02,0.023,0.0285,0.0314,0.0321,0.0335,0.0346,0.0351,0.0326,0.0305,0.0275,0.0215,0.0173,0.0103,0.0008,0.0017,-0.0064,-0.013,-0.0134,-0.0166,-0.022,-0.0225,-0.0176,-0.0305,-0.0194,-0.0194,-0.0194,0,0.0228,0.0281,0.0329,0.0339,0.0364,0.0382,0.0392,0.0383,0.0398,0.038,0.0381,0.0318,0.0287,0.0186,0.0053,0.0029,-0.0054,-0.0106,-0.0184,-0.0185,-0.0195,-0.0197,-0.0281,-0.0169,-0.0169,-0.0169,-0.0169,0,0.0265,0.0301,0.0346,0.0367,0.0419,0.0423,0.0468,0.0466,0.048,0.0517,0.0442,0.0452,0.0305,0.0233,0.01,-0.0024,-0.0014,-0.0158,-0.0188,-0.0164,-0.0163,-0.0304,-0.0378,-0.0171,-0.017,-0.017,-0.017,0,0.0274,0.0307,0.0361,0.0411,0.0431,0.0463,0.0519,0.0555,0.0558,0.0607,0.0606,0.0558,0.048,0.033,0.0174,0.0047,-0.0152,-0.0138,-0.0092,-0.0116,-0.0312,-0.0382,-0.0496,-0.0549,-0.0223,-0.0223,-0.0223,0,0.0282,0.0313,0.0387,0.0431,0.0456,0.0511,0.0556,0.0585,0.0639,0.0679,0.0713,0.0657,0.0647,0.0427,0.0207,0.0004,-0.0143,-0.0135,-0.0181,-0.0302,-0.0403,-0.046,-0.0501,-0.0162,-0.0161,-0.0161,-0.0161,0,0.03,0.0325,0.0374,0.0463,0.0524,0.0595,0.0668,0.0723,0.0779,0.0831,0.09,0.0897,0.0712,0.0545,0.0262,0.0092,-0.021,-0.0137,-0.0276,-0.0363,-0.0417,-0.0489,-0.0162,-0.0158,-0.0159,-0.0159,-0.0159,-0.0159,0.0316,0.0352,0.0426,0.0506,0.0582,0.0681,0.075,0.0847,0.095,0.1063,0.1054,0.1094,0.0833,0.0468,0.0227,-0.0193,-0.0199,-0.0321,-0.0394,-0.0441,-0.0492,-0.0151,-0.0177,-0.0177,-0.0178,-0.0178,-0.0178,0,0.0352,0.0399,0.0472,0.0578,0.0663,0.0698,0.0832,0.0918,0.1061,0.1178,0.1254,0.1163,0.0832,0.0447,-0.0095,-0.0386,-0.0513,-0.0555,-0.0637,-0.0668,-0.0373,-0.0371,-0.0421,-0.0421,-0.0421,-0.0421,-0.0421,-0.042,0.0379,0.0454,0.0491,0.0634,0.0708,0.0833,0.0915,0.1049,0.1159,0.1301,0.1349,0.1366,0.1065,0.015,-0.0502,-0.0659,-0.0873,-0.0899,-0.1014,-0.0826,-0.081,-0.0795,-0.081,-0.0952,-0.0953,-0.1264,-0.1267,-0.1269]}],[{"header":{"parameterUnit":"m.s-1","parameterCategory":2,"la1":30.2991,"la2":30.254,"lo1":-89.0895,"lo2":-89.0444,"dy":0.0017,"dx":0.0017,"nx":28,"ny":28,"refTime":"2024-10-04T09:00:00:Z","depth":"2","parameterNumber":2,"parameterNumberName":"U-component_of_CURRENTS"},"data":[0,0,0,0,0,0,0,0,0,0,0,0,0,0,0,0,0,0,0,0,0,0,0,0,0,0,0,0,0,0,0,0,0,0,0,0,0,0,0,0,0,0,0,0,0,0,0,0,0,0,0,0,0,0,0,0,0,0,0.1952,0.1952,0,0.1988,0.1988,0.1988,0.2014,0.2014,0.2014,0.2015,0.2046,0.2046,0.2046,0,0,0,0,0,0,0,0,0,0,0,0,0,0.1905,0.1906,0.1952,0.1953,0.1953,0.1988,0.1988,0.1989,0.2013,0.2014,0.2014,0.2015,0.2045,0.2046,0.2047,0,0,0,0,0,0,0,0,0,0,0,0,0,0.193,0.1906,0.1952,0.1971,0.1974,0.1988,0.1988,0.1989,0.2013,0.2014,0.2015,0.2015,0.2045,0.2046,0.2047,0.204,0,0,0.2049,0.2049,0,0,0,0,0,0,0,0,0.1929,0.1931,0.1968,0.197,0.1973,0.1999,0.1983,0.2006,0.2013,0.1996,0.2015,0.2015,0.203,0.2032,0.2035,0.2041,0.2042,0.2049,0.2049,0.205,0.205,0,0,0,0,0,0,0,0.1927,0.193,0.1964,0.1968,0.1971,0.1979,0.1983,0.1988,0.2008,0.1998,0.2,0.2007,0.2031,0.2034,0.2036,0.2043,0.2049,0.2049,0.205,0.205,0.21,0.2101,0,0,0,0,0,0,0.1926,0.1928,0.1963,0.1965,0.1954,0.1979,0.1983,0.1988,0.2008,0.2012,0.2007,0.2008,0.2033,0.2035,0.2037,0.2102,0.205,0.205,0.2051,0.2099,0.21,0.2101,0,0,0,0,0,0,0.1925,0.1928,0.1962,0.1949,0.1955,0.198,0.1984,0.1988,0.2,0.2015,0.2019,0.2016,0.2033,0.2036,0.2057,0.2101,0.205,0.2051,0.2098,0.2099,0.21,0.2186,0,0,0,0,0,0,0.1923,0.1928,0.1931,0.1949,0.1955,0.1979,0.1984,0.1989,0.2004,0.2007,0.2024,0.2027,0.2034,0.2056,0.2057,0.2101,0.2052,0.2097,0.2098,0.21,0.2182,0.219,0.2197,0,0,0,0,0,0.1921,0.1929,0.1931,0.1936,0.1959,0.198,0.1983,0.2001,0.2004,0.2013,0.2028,0.2027,0.2068,0.2057,0.2059,0.2104,0.2096,0.2098,0.21,0.2179,0.2189,0.2197,0,0,0,0,0,0,0.1911,0.1932,0.1936,0.1949,0.1966,0.1985,0.1997,0.2003,0.202,0.2027,0.2034,0.2038,0.2076,0.2066,0.2054,0.212,0.2083,0.2086,0.2143,0.2152,0.2159,0.2193,0.2052,0,0,0,0,0,0.1909,0.1921,0.1939,0.1951,0.196,0.1976,0.1986,0.2,0.2018,0.2026,0.2037,0.2054,0.2083,0.2098,0.2111,0.214,0.215,0.2169,0.2177,0.2184,0.2211,0.2257,0.2272,0.2107,0.2107,0.2107,0,0,0.1909,0.1922,0.1928,0.1949,0.1963,0.1998,0.1984,0.2007,0.2044,0.2026,0.2072,0.2077,0.2094,0.2139,0.2155,0.2139,0.2232,0.2186,0.2192,0.2217,0.2261,0.2277,0.2292,0.2109,0.2109,0.2108,0,0,0.1926,0.1925,0.1947,0.1965,0.1992,0.2011,0.2019,0.2042,0.2059,0.2092,0.2104,0.2133,0.2156,0.2193,0.2213,0.2263,0.2267,0.2264,0.2339,0.2383,0.2398,0.2411,0.2433,0.2448,0.2272,0.2272,0.2272,0,0.1928,0.1961,0.1956,0.1988,0.2012,0.2022,0.206,0.2085,0.2113,0.2132,0.2117,0.2189,0.2192,0.228,0.2306,0.2286,0.2305,0.2307,0.2396,0.2409,0.2421,0.2441,0.2456,0.2276,0.2276,0.2275,0.2275,0,0.1979,0.1999,0.2015,0.2064,0.2081,0.2117,0.2147,0.2171,0.2186,0.221,0.2275,0.2291,0.2342,0.2345,0.2348,0.2445,0.2428,0.2399,0.238,0.2444,0.2459,0.2474,0.2282,0.2281,0.228,0.2278,0,0,0.2012,0.2045,0.2054,0.2071,0.2127,0.214,0.2205,0.226,0.2305,0.2336,0.2401,0.2459,0.2472,0.2496,0.2507,0.2548,0.2638,0.2524,0.2524,0.2559,0.2736,0.262,0.2624,0.2634,0.2637,0.2639,0.271,0,0.2065,0.2109,0.2132,0.2188,0.2209,0.2238,0.2289,0.2332,0.2375,0.2435,0.2476,0.2543,0.2533,0.2571,0.2619,0.2635,0.2682,0.2621,0.2659,0.266,0.256,0.2639,0.2444,0.2482,0.2723,0.2725,0.2727,0,0.2112,0.214,0.2189,0.222,0.2236,0.2297,0.2368,0.2408,0.2494,0.2528,0.2617,0.2648,0.2751,0.2709,0.2811,0.2779,0.2782,0.2777,0.2779,0.2658,0.2571,0.2458,0.2498,0.275,0.2749,0.2747,0.2745,0,0.2104,0.2168,0.2201,0.2221,0.2279,0.2331,0.2375,0.245,0.2493,0.2612,0.2669,0.2775,0.2848,0.2883,0.2889,0.2871,0.2959,0.2921,0.2821,0.2812,0.2646,0.2616,0.2994,0.2994,0.2994,0.2993,0.2993,0,0.2127,0.2153,0.2212,0.224,0.2293,0.2333,0.2415,0.2468,0.2578,0.2629,0.2734,0.28,0.2901,0.2951,0.2935,0.2924,0.3005,0.2863,0.2836,0.2665,0.2638,0.2866,0.285,0.2996,0.2995,0.2995,0.2994,0,0.2088,0.2123,0.2166,0.2258,0.2284,0.2321,0.2431,0.2488,0.26,0.2684,0.2735,0.287,0.2929,0.2981,0.3029,0.2983,0.2966,0.2932,0.2715,0.266,0.2781,0.2769,0.2858,0.2855,0.2852,0.285,0.2848,0,0.2072,0.2088,0.2164,0.2195,0.2256,0.2325,0.2369,0.2482,0.2534,0.2685,0.2709,0.2845,0.2857,0.2901,0.2869,0.2845,0.2905,0.2642,0.2567,0.281,0.2775,0.2767,0.2758,0.2383,0.2378,0.2373,0.237,0,0.2059,0.2082,0.2115,0.2168,0.2234,0.2272,0.2353,0.239,0.2496,0.2569,0.2613,0.2646,0.2713,0.2605,0.2617,0.2565,0.2631,0.2546,0.2886,0.2431,0.2363,0.2328,0.2335,0.2329,0.2333,0.2336,0.2338,0.234,0.2045,0.2055,0.2092,0.2125,0.2179,0.2201,0.2209,0.2264,0.2291,0.2316,0.2398,0.236,0.2413,0.2306,0.2236,0.222,0.2387,0.2291,0.2306,0.2325,0.2241,0.217,0.2084,0.2087,0.2089,0.2091,0.2092,0,0.2026,0.2037,0.2051,0.2073,0.2073,0.2149,0.2167,0.2115,0.207,0.2093,0.207,0.1902,0.1843,0.1909,0.1824,0.1824,0.1817,0.1756,0.174,0.1782,0.1819,0.1709,0.1411,0.1409,0.1407,0.1405,0,0,0.2011,0.1994,0.197,0.1939,0.1979,0.1959,0.195,0.1853,0.1811,0.1683,0.1639,0.1701,0.1823,0.1571,0.1565,0.1475,0.1609,0.1419,0.197,0.1993,0.2026,0.2139,0.2017,0,0,0,0,0]},{"header":{"parameterUnit":"m.s-1","parameterCategory":2,"la1":30.2991,"la2":30.254,"lo1":-89.0895,"lo2":-89.0444,"dy":0.0017,"dx":0.0017,"nx":28,"ny":28,"refTime":"2024-10-04T09:00:00:Z","depth":"2","parameterNumber":3,"parameterNumberName":"V-component_of_CURRENTS"},"data":[0,0,0,0,0,0,0,0,0,0,0,0,0,0,0,0,0,0,0,0,0,0,0,0,0,0,0,0,0,0,0,0,0,0,0,0,0,0,0,0,0,0,0,0,0,0,0,0,0,0,0,0,0,0,0,0,0,0,0.0025,0.0024,0,-0.0028,-0.0029,-0.003,-0.0082,-0.0082,-0.0083,-0.0084,-0.0183,-0.0185,-0.0187,0,0,0,0,0,0,0,0,0,0,0,0,0,0.0052,0.0052,0.0025,0.0024,0.0023,-0.0028,-0.0029,-0.003,-0.0081,-0.0082,-0.0083,-0.0084,-0.0182,-0.0185,-0.0187,0,0,0,0,0,0,0,0,0,0,0,0,0,0.0024,0.0052,0.0025,-0.0008,-0.0012,-0.0028,-0.0029,-0.003,-0.0081,-0.0082,-0.0083,-0.0084,-0.0182,-0.0185,-0.0188,-0.0187,0,0,-0.0197,-0.0198,0,0,0,0,0,0,0,0,0.0026,0.0023,-0.0003,-0.0006,-0.001,-0.0049,-0.0056,-0.0085,-0.0081,-0.0055,-0.0084,-0.0085,-0.0142,-0.0148,-0.0156,-0.0191,-0.0196,-0.0197,-0.0199,-0.02,-0.0201,0,0,0,0,0,0,0,0.0028,0.0025,0.0004,-0.0004,-0.0008,-0.0031,-0.0036,-0.0062,-0.0093,-0.0057,-0.0061,-0.0067,-0.0144,-0.0152,-0.0158,-0.0197,-0.0197,-0.02,-0.0202,-0.0203,-0.0257,-0.0257,0,0,0,0,0,0,0.0037,0.0027,0.0005,0.0002,0.0006,-0.003,-0.0036,-0.0036,-0.0092,-0.0101,-0.0066,-0.0069,-0.0147,-0.0155,-0.0162,-0.0178,-0.02,-0.0203,-0.0205,-0.0257,-0.0257,-0.0256,0,0,0,0,0,0,0.0038,0.0036,0.0007,0.0013,0.0008,-0.0029,-0.0029,-0.0036,-0.0049,-0.0098,-0.0108,-0.0071,-0.0148,-0.0158,-0.0186,-0.0182,-0.0205,-0.0207,-0.0258,-0.0257,-0.0257,-0.02,0,0,0,0,0,0,0.0039,0.0037,0.004,0.0014,0.0008,-0.0001,-0.0029,-0.0037,-0.005,-0.0055,-0.0106,-0.0116,-0.0149,-0.0181,-0.0189,-0.0186,-0.021,-0.0258,-0.0258,-0.0257,-0.0203,-0.0198,-0.0194,0,0,0,0,0,0.0041,0.005,0.0041,0.0038,0.0014,-0.0,-0.0005,-0.0036,-0.0049,-0.0051,-0.0086,-0.0115,-0.0183,-0.0183,-0.0193,-0.0191,-0.0259,-0.0258,-0.0257,-0.0205,-0.0199,-0.0194,0,0,0,0,0,0,0.0061,0.0045,0.0035,0.0038,0.0021,-0.0009,-0.0012,-0.003,-0.0057,-0.0062,-0.011,-0.0122,-0.0147,-0.0173,-0.0173,-0.0203,-0.0225,-0.0226,-0.0182,-0.0177,-0.0173,-0.0152,-0.0212,0,0,0,0,0,0.007,0.0074,0.0051,0.0054,0.0049,0.0021,0.0012,-0.0006,-0.0033,-0.0046,-0.0081,-0.0117,-0.0148,-0.0166,-0.0197,-0.0211,-0.0233,-0.0215,-0.021,-0.0206,-0.0196,-0.0225,-0.0222,-0.0254,-0.0254,-0.0254,0,0,0.0078,0.007,0.0071,0.0059,0.0045,0.0048,0.0013,0.0006,0.0005,-0.0052,-0.0064,-0.0104,-0.0149,-0.0168,-0.0181,-0.0191,-0.021,-0.0205,-0.0202,-0.0193,-0.0224,-0.0221,-0.0218,-0.0253,-0.0253,-0.0253,0,0,0.0103,0.0092,0.0107,0.0098,0.0084,0.0068,0.0069,0.0043,0.0028,0.0013,-0.003,-0.0062,-0.0107,-0.0137,-0.0159,-0.0146,-0.0186,-0.0159,-0.012,-0.0149,-0.0146,-0.0144,-0.0168,-0.0168,-0.0156,-0.0155,-0.0155,0,0.0114,0.0129,0.0107,0.012,0.0118,0.0083,0.0098,0.0081,0.0048,0.0039,0.0016,-0.0048,-0.009,-0.0114,-0.0113,-0.0136,-0.0158,-0.0137,-0.0142,-0.0141,-0.014,-0.0165,-0.0166,-0.0153,-0.0153,-0.0153,-0.0153,0,0.0151,0.0162,0.017,0.0177,0.0172,0.0178,0.0155,0.0146,0.0122,0.01,0.007,0.0014,-0.0022,-0.0045,-0.0078,-0.0091,-0.0111,-0.0135,-0.0154,-0.0133,-0.0161,-0.0163,-0.0149,-0.015,-0.015,-0.0151,0,0,0.0178,0.0195,0.0198,0.0213,0.0204,0.0206,0.0207,0.0197,0.0201,0.0157,0.0155,0.0093,0.0061,0.0035,-0.0013,-0.0042,-0.0061,-0.0081,-0.0084,-0.0099,-0.0121,-0.013,-0.0135,-0.0088,-0.0088,-0.0088,-0.0142,0,0.0214,0.0258,0.0251,0.0286,0.0305,0.0277,0.0283,0.0267,0.0243,0.0231,0.017,0.0148,0.0092,0.0076,0.0038,-0.0035,-0.0065,-0.0043,-0.0142,-0.0144,-0.0152,-0.0137,-0.0115,-0.016,-0.0144,-0.0145,-0.0145,0,0.0253,0.0278,0.0325,0.0347,0.0352,0.0364,0.0367,0.0366,0.0335,0.0318,0.0283,0.0236,0.0189,0.0138,0.0036,0.0051,-0.0025,-0.0086,-0.009,-0.0118,-0.0158,-0.0179,-0.0166,-0.015,-0.0149,-0.0149,-0.0149,0,0.0292,0.0328,0.037,0.0378,0.0396,0.0407,0.0408,0.0391,0.0406,0.0374,0.0383,0.031,0.029,0.0184,0.0063,0.0049,-0.0052,-0.0089,-0.017,-0.0171,-0.018,-0.0182,-0.016,-0.016,-0.016,-0.016,-0.016,0,0.0337,0.0369,0.0393,0.0417,0.0462,0.0451,0.049,0.0478,0.0481,0.0507,0.0433,0.0443,0.0302,0.0227,0.0095,-0.0034,-0.0026,-0.0154,-0.0183,-0.016,-0.016,-0.0174,-0.0175,-0.0162,-0.0161,-0.0161,-0.0161,0,0.038,0.0395,0.0445,0.0474,0.0485,0.0516,0.0556,0.0585,0.0575,0.0609,0.0607,0.0556,0.0458,0.0307,0.0144,0.0027,-0.0114,-0.0166,-0.0125,-0.0148,-0.0225,-0.0222,-0.0259,-0.0259,-0.026,-0.0261,-0.0261,0,0.0413,0.0443,0.0491,0.0524,0.0542,0.0586,0.062,0.0631,0.0669,0.0678,0.0704,0.0636,0.0589,0.0357,0.0142,-0.0077,-0.011,-0.0195,-0.0223,-0.0209,-0.0234,-0.023,-0.0227,-0.0216,-0.0216,-0.0216,-0.0216,0,0.0466,0.0478,0.0518,0.0584,0.0631,0.0692,0.074,0.0791,0.0804,0.0836,0.0855,0.0819,0.0609,0.0407,0.0124,-0.0026,-0.0161,-0.0203,-0.0197,-0.0191,-0.0173,-0.0195,-0.0193,-0.0217,-0.0217,-0.0217,-0.0217,-0.0217,0.0503,0.0533,0.0576,0.0644,0.0702,0.0778,0.0834,0.089,0.0959,0.0984,0.0952,0.0891,0.0678,0.0315,0.0082,-0.0159,-0.0162,-0.0255,-0.0253,-0.0252,-0.0234,-0.0217,-0.0266,-0.0267,-0.0267,-0.0267,-0.0267,0,0.0538,0.0564,0.0629,0.0704,0.0773,0.0801,0.0899,0.0944,0.1022,0.1037,0.1029,0.0813,0.0598,0.0352,-0.0002,-0.0217,-0.0235,-0.0282,-0.0255,-0.0254,-0.0253,-0.0233,-0.0266,-0.0267,-0.0267,-0.0268,0,0,0.0552,0.0605,0.0635,0.0744,0.0802,0.0894,0.0954,0.101,0.1042,0.1043,0.1009,0.0935,0.066,0.0408,0.0125,-0.0069,-0.0116,-0.0111,-0.0091,-0.0024,-0.0021,-0.0218,-0.0184,0,0,0,0,0]}],[{"header":{"parameterUnit":"m.s-1","parameterCategory":2,"la1":30.2991,"la2":30.254,"lo1":-89.0895,"lo2":-89.0444,"dy":0.0017,"dx":0.0017,"nx":28,"ny":28,"refTime":"2024-10-04T09:00:00:Z","depth":"4","parameterNumber":2,"parameterNumberName":"U-component_of_CURRENTS"},"data":[0,0,0,0,0,0,0,0,0,0,0,0,0,0,0,0,0,0,0,0,0,0,0,0,0,0,0,0,0,0,0,0,0,0,0,0,0,0,0,0,0,0,0,0,0,0,0,0,0,0,0,0,0,0,0,0,0,0,0.1261,0.1261,0,0.1279,0.1279,0.1279,0.1298,0.1298,0.1299,0.1299,0.1337,0.1338,0.1339,0,0,0,0,0,0,0,0,0,0,0,0,0,0.1239,0.1239,0.1261,0.1261,0.1262,0.1279,0.1279,0.1279,0.1298,0.1298,0.1299,0.1299,0.1337,0.1338,0.1339,0,0,0,0,0,0,0,0,0,0,0,0,0,0.1252,0.1239,0.1261,0.1273,0.1275,0.1278,0.1279,0.1279,0.1298,0.1298,0.1299,0.1299,0.1337,0.1338,0.1339,0.1337,0,0,0.1342,0.1343,0,0,0,0,0,0,0,0,0.1251,0.1252,0.1271,0.1272,0.1274,0.1287,0.1285,0.13,0.1298,0.1289,0.1299,0.1299,0.1322,0.1324,0.1326,0.1339,0.134,0.1342,0.1343,0.1344,0.1344,0,0,0,0,0,0,0,0.125,0.1252,0.1268,0.1271,0.1273,0.1276,0.1278,0.1288,0.1303,0.129,0.1291,0.1293,0.1323,0.1325,0.1327,0.1341,0.1342,0.1343,0.1344,0.1345,0.1414,0.1415,0,0,0,0,0,0,0.1248,0.1251,0.1267,0.1268,0.1263,0.1276,0.1279,0.1282,0.1303,0.1306,0.1293,0.1294,0.1323,0.1326,0.1329,0.1387,0.1344,0.1345,0.1345,0.1413,0.1414,0.1415,0,0,0,0,0,0,0.1247,0.1249,0.1267,0.126,0.1263,0.1276,0.128,0.1282,0.1311,0.1305,0.1309,0.1322,0.1323,0.1327,0.1361,0.1386,0.1345,0.1346,0.1411,0.1413,0.1415,0.1466,0,0,0,0,0,0,0.1247,0.1249,0.1266,0.126,0.1263,0.1287,0.1279,0.1282,0.131,0.1312,0.1331,0.1333,0.1324,0.1359,0.1362,0.1387,0.1347,0.141,0.1412,0.1414,0.1463,0.1469,0.1475,0,0,0,0,0,0.1246,0.1259,0.1266,0.1269,0.128,0.1288,0.129,0.13,0.1311,0.1328,0.1342,0.1334,0.1375,0.1361,0.1364,0.139,0.1409,0.1412,0.1414,0.146,0.1468,0.1474,0,0,0,0,0,0,0.1256,0.1262,0.127,0.1285,0.1296,0.1291,0.1311,0.1318,0.1342,0.1354,0.135,0.1354,0.1392,0.1386,0.1371,0.1417,0.139,0.1393,0.1424,0.1431,0.1437,0.1429,0.1348,0,0,0,0,0,0.1266,0.1283,0.1285,0.1302,0.131,0.1318,0.1329,0.1336,0.1348,0.1361,0.1372,0.1386,0.14,0.1413,0.1422,0.1449,0.1442,0.1468,0.1474,0.1479,0.1474,0.1488,0.1494,0.1424,0.1424,0.1424,0,0,0.1275,0.1282,0.1292,0.1307,0.1318,0.1326,0.1327,0.1351,0.1365,0.1361,0.1398,0.1412,0.1413,0.1442,0.1458,0.1444,0.1499,0.1482,0.1487,0.1479,0.1491,0.1498,0.1504,0.1426,0.1426,0.1425,0,0,0.1285,0.1309,0.1321,0.1332,0.1353,0.1356,0.1371,0.1385,0.1403,0.1434,0.1437,0.1467,0.1489,0.1493,0.1496,0.1542,0.1531,0.1553,0.1576,0.159,0.1595,0.16,0.1613,0.1618,0.1554,0.1554,0.1554,0,0.1298,0.1306,0.1327,0.1337,0.1349,0.1373,0.1383,0.1402,0.1428,0.1445,0.1455,0.1497,0.1508,0.1532,0.1551,0.1555,0.1561,0.1549,0.1597,0.1601,0.1605,0.1617,0.1622,0.1557,0.1557,0.1557,0.1556,0,0.1299,0.132,0.133,0.135,0.137,0.1387,0.1409,0.1442,0.1472,0.1483,0.1531,0.1548,0.157,0.1585,0.1584,0.1621,0.1617,0.1604,0.1577,0.1615,0.1626,0.163,0.1561,0.156,0.1559,0.1559,0,0,0.128,0.1322,0.1327,0.134,0.1379,0.1389,0.1431,0.1461,0.149,0.1528,0.1559,0.1597,0.1616,0.1621,0.1633,0.1648,0.1694,0.1645,0.1645,0.1655,0.173,0.164,0.1636,0.1694,0.1695,0.1695,0.173,0,0.1272,0.1293,0.1319,0.1345,0.1356,0.1399,0.1434,0.1473,0.1513,0.1552,0.1583,0.1621,0.1626,0.1654,0.1671,0.1691,0.1706,0.1685,0.1693,0.1693,0.1605,0.1638,0.1698,0.1734,0.1735,0.1735,0.1736,0,0.1246,0.1269,0.1296,0.1343,0.1353,0.1381,0.1443,0.1475,0.1538,0.1575,0.162,0.1646,0.1692,0.1687,0.1732,0.1723,0.1731,0.1737,0.1739,0.1634,0.161,0.1684,0.1744,0.1743,0.1743,0.1742,0.1742,0,0.1203,0.1244,0.127,0.1284,0.1346,0.1379,0.1417,0.1485,0.1526,0.1597,0.1639,0.1682,0.1727,0.174,0.1768,0.1759,0.1804,0.1789,0.171,0.1705,0.1753,0.1747,0.1807,0.1807,0.1807,0.1806,0.1806,0,0.1162,0.1181,0.1257,0.1269,0.1308,0.1362,0.1413,0.1464,0.1544,0.1585,0.1652,0.169,0.1746,0.1778,0.178,0.1761,0.1816,0.1714,0.1705,0.1776,0.1772,0.1757,0.175,0.1808,0.1807,0.1807,0.1807,0,0.1103,0.1152,0.1184,0.1261,0.1289,0.1319,0.1412,0.1446,0.1537,0.1598,0.1628,0.1721,0.1763,0.1797,0.1828,0.1778,0.1766,0.1742,0.1827,0.1822,0.1655,0.1651,0.1652,0.1649,0.1647,0.1645,0.1643,0,0.1068,0.1084,0.1173,0.1201,0.1241,0.1298,0.134,0.1435,0.1472,0.1597,0.1614,0.1702,0.1744,0.1711,0.176,0.1751,0.1731,0.1711,0.1667,0.1647,0.1638,0.1638,0.1638,0.1639,0.1638,0.1638,0.1637,0,0.1006,0.1057,0.1092,0.1154,0.1203,0.1241,0.1305,0.1324,0.1427,0.1527,0.1557,0.158,0.1628,0.1647,0.1658,0.1647,0.1713,0.1684,0.1688,0.1647,0.1631,0.1625,0.1627,0.1628,0.163,0.163,0.1631,0,0.0969,0.0982,0.1046,0.1088,0.1148,0.1164,0.1203,0.1242,0.1291,0.1423,0.1429,0.152,0.1607,0.1595,0.1601,0.1589,0.1563,0.15,0.1514,0.1524,0.1466,0.1425,0.1351,0,0,0,0,0,0.0921,0.0932,0.0971,0.1009,0.1067,0.1101,0.1173,0.1214,0.1311,0.1295,0.1357,0.139,0.1417,0.1469,0.143,0.1555,0.1573,0.1503,0.1507,0.158,0.159,0.1534,0,0,0,0,0,0,0.0891,0.0926,0.0943,0.0939,0.0953,0.0998,0.104,0.1105,0.1096,0.1203,0.1223,0.1309,0.1355,0.1423,0.1405,0.1421,0.1394,0.1565,0.1562,0.1574,0.1584,0.1592,0.1538,0,0,0,0,0]},{"header":{"parameterUnit":"m.s-1","parameterCategory":2,"la1":30.2991,"la2":30.254,"lo1":-89.0895,"lo2":-89.0444,"dy":0.0017,"dx":0.0017,"nx":28,"ny":28,"refTime":"2024-10-04T09:00:00:Z","depth":"4","parameterNumber":3,"parameterNumberName":"V-component_of_CURRENTS"},"data":[0,0,0,0,0,0,0,0,0,0,0,0,0,0,0,0,0,0,0,0,0,0,0,0,0,0,0,0,0,0,0,0,0,0,0,0,0,0,0,0,0,0,0,0,0,0,0,0,0,0,0,0,0,0,0,0,0,0,0.0103,0.0103,0,0.0083,0.0083,0.0083,0.0074,0.0074,0.0074,0.0074,0.0032,0.0031,0.0029,0,0,0,0,0,0,0,0,0,0,0,0,0,0.0104,0.0105,0.0103,0.0103,0.0102,0.0084,0.0083,0.0083,0.0074,0.0074,0.0074,0.0074,0.0032,0.0031,0.0029,0,0,0,0,0,0,0,0,0,0,0,0,0,0.0096,0.0105,0.0103,0.0096,0.0095,0.0084,0.0083,0.0083,0.0074,0.0074,0.0074,0.0074,0.0033,0.0031,0.0029,0.0017,0,0,0.0024,0.0023,0,0,0,0,0,0,0,0,0.0096,0.0096,0.0097,0.0096,0.0095,0.0081,0.0068,0.006,0.0073,0.0081,0.0074,0.0074,0.0047,0.0044,0.0039,0.0015,0.0013,0.0024,0.0023,0.0022,0.0021,0,0,0,0,0,0,0,0.0097,0.0096,0.0095,0.0097,0.0096,0.0084,0.0083,0.0067,0.0063,0.008,0.008,0.0079,0.0046,0.0041,0.0038,0.0012,0.0024,0.0022,0.0021,0.002,-0.0038,-0.0039,0,0,0,0,0,0,0.0102,0.0097,0.0095,0.0094,0.0097,0.0084,0.0083,0.0085,0.0063,0.0061,0.0078,0.0078,0.0044,0.004,0.0037,0.0023,0.0022,0.002,0.0019,-0.0038,-0.0038,-0.0039,0,0,0,0,0,0,0.0102,0.0102,0.0096,0.0095,0.0094,0.0085,0.0087,0.0085,0.0082,0.0062,0.0059,0.0077,0.0044,0.0039,0.0021,0.0021,0.0019,0.0018,-0.0037,-0.0038,-0.0039,-0.0007,0,0,0,0,0,0,0.0102,0.0102,0.0106,0.0096,0.0094,0.009,0.0087,0.0085,0.0081,0.008,0.006,0.0056,0.0044,0.0024,0.0019,0.0019,0.0017,-0.0036,-0.0037,-0.0038,-0.0007,-0.0006,-0.0006,0,0,0,0,0,0.0102,0.0107,0.0106,0.0106,0.0099,0.009,0.0088,0.0081,0.0081,0.0079,0.0064,0.0057,0.0014,0.0022,0.0017,0.0016,-0.0036,-0.0037,-0.0038,-0.0007,-0.0006,-0.0006,0,0,0,0,0,0,0.0107,0.0106,0.0105,0.0108,0.0101,0.0089,0.0088,0.0083,0.007,0.0071,0.0052,0.0047,0.0031,0.0015,0.0024,-0.0006,-0.0013,-0.0015,0.0012,0.0013,0.0014,0.0023,0.0015,0,0,0,0,0,0.0111,0.0116,0.0108,0.0111,0.0109,0.0099,0.0095,0.0091,0.0079,0.0074,0.0059,0.004,0.0022,0.0012,-0.0006,-0.0022,-0.004,-0.0029,-0.0028,-0.0027,-0.0024,-0.0052,-0.0053,-0.0043,-0.0043,-0.0043,0,0,0.0114,0.0114,0.0116,0.0113,0.0108,0.0108,0.0097,0.0094,0.0094,0.0071,0.0064,0.0043,0.0018,0.0002,-0.0007,-0.0011,-0.004,-0.0029,-0.0027,-0.0025,-0.0053,-0.0054,-0.0054,-0.0043,-0.0043,-0.0043,0,0,0.0124,0.0123,0.0131,0.0127,0.0123,0.0116,0.0116,0.0105,0.0099,0.0088,0.0071,0.005,0.0024,0.0006,-0.0007,-0.0015,-0.0034,-0.0024,-0.0011,-0.0038,-0.0039,-0.0039,-0.0063,-0.0066,-0.0024,-0.0024,-0.0024,0,0.0128,0.014,0.0131,0.0137,0.0139,0.0122,0.013,0.0119,0.0103,0.0098,0.009,0.0048,0.0027,0.0006,0.0002,-0.0012,-0.003,-0.0009,-0.0035,-0.0036,-0.0038,-0.0062,-0.0066,-0.0023,-0.0023,-0.0023,-0.0023,0,0.0145,0.0154,0.0158,0.0164,0.0161,0.0164,0.0152,0.0145,0.0135,0.0124,0.0101,0.0068,0.0045,0.003,0.0014,-0.0008,-0.0019,-0.0028,-0.0032,-0.0037,-0.0062,-0.0067,-0.0021,-0.0021,-0.0022,-0.0022,0,0,0.0156,0.0169,0.0171,0.0184,0.0178,0.018,0.0176,0.0169,0.0172,0.0142,0.0138,0.0096,0.0078,0.0061,0.0033,0.0005,-0.0021,-0.0013,-0.0016,-0.0027,-0.0079,-0.0077,-0.0082,-0.0034,-0.0035,-0.0035,-0.0092,0,0.0174,0.02,0.0197,0.0218,0.0232,0.0217,0.0218,0.0208,0.0192,0.0181,0.0138,0.0123,0.0089,0.0081,0.0046,-0.0002,-0.0032,-0.0005,-0.0081,-0.0084,-0.0074,-0.0087,-0.0037,-0.0096,-0.0097,-0.0098,-0.0098,0,0.0193,0.0211,0.0239,0.0258,0.0262,0.0269,0.0273,0.027,0.0244,0.0232,0.0201,0.0171,0.0125,0.01,0.0012,0.0031,-0.002,-0.0062,-0.0066,-0.0077,-0.009,-0.0093,-0.0107,-0.0106,-0.0106,-0.0105,-0.0104,0,0.0218,0.024,0.0269,0.0275,0.0289,0.0298,0.03,0.0287,0.0296,0.0265,0.0268,0.0204,0.0182,0.0104,0.0018,0.0015,-0.0079,-0.0092,-0.0142,-0.0143,-0.014,-0.0139,-0.0155,-0.0155,-0.0155,-0.0155,-0.0154,0,0.0242,0.0265,0.0285,0.0302,0.0336,0.033,0.0357,0.0347,0.0344,0.0357,0.0299,0.0292,0.0183,0.0118,0.003,-0.0068,-0.0071,-0.0142,-0.0158,-0.0126,-0.0123,-0.0143,-0.0141,-0.0157,-0.0156,-0.0156,-0.0155,0,0.0267,0.028,0.0316,0.034,0.0352,0.0374,0.0405,0.0423,0.0412,0.0426,0.0422,0.0361,0.0272,0.0159,0.0033,-0.004,-0.014,-0.0175,-0.0129,-0.0141,-0.0191,-0.0187,-0.0238,-0.0238,-0.0238,-0.0239,-0.0239,0,0.0283,0.0305,0.0348,0.0374,0.0388,0.0423,0.0449,0.0456,0.0476,0.0467,0.0475,0.0404,0.0346,0.0173,0.0046,-0.0123,-0.0149,-0.02,-0.0205,-0.019,-0.02,-0.0196,-0.0191,-0.024,-0.024,-0.024,-0.024,0,0.0311,0.0326,0.0354,0.0409,0.0446,0.0489,0.0524,0.0547,0.0552,0.0552,0.0523,0.043,0.0329,0.0182,0.0052,-0.0071,-0.0168,-0.0205,-0.0205,-0.021,-0.0193,-0.0202,-0.0197,-0.0241,-0.0241,-0.0241,-0.0241,0,0.033,0.0351,0.0388,0.0434,0.0486,0.0531,0.0551,0.0572,0.059,0.0578,0.0568,0.0453,0.0388,0.0209,0.0088,-0.0032,-0.0068,-0.0109,-0.0115,-0.0115,-0.0066,-0.0026,-0.0038,0,0,0,0,0,0.0343,0.0364,0.0408,0.0456,0.0509,0.0538,0.0589,0.0604,0.0616,0.0605,0.0587,0.0492,0.0313,0.0236,0.0116,0.0069,-0.0096,-0.0076,-0.0148,-0.0248,-0.0247,-0.021,0,0,0,0,0,0,0.035,0.039,0.0405,0.0464,0.0499,0.0557,0.0591,0.0603,0.0595,0.059,0.05,0.0457,0.0284,0.0379,0.0111,0.0074,0.0012,-0.0159,-0.0161,-0.0249,-0.0248,-0.0246,-0.0209,0,0,0,0,0]}]]